Time,TemperatureF,DewpointF,PressureIn,WindDirection,WindDirectionDegrees,WindSpeedMPH,WindSpeedGustMPH,Humidity,HourlyPrecipIn,Conditions,Clouds,dailyrainin,SoftwareType,DateUTC
2013-02-27 00:04:00,53.6,43.7,29.88,South,187,1.0,9.0,69,0.00,,,0.00,Wunderground v.1.15,2013-02-27 06:04:00,
2013-02-27 00:12:00,53.5,44.0,29.89,NNE,26,1.0,1.0,70,0.00,,,0.00,Wunderground v.1.15,2013-02-27 06:12:00,
2013-02-27 00:20:00,53.3,44.1,29.88,NNE,27,0.0,5.0,71,0.00,,,0.00,Wunderground v.1.15,2013-02-27 06:20:00,
2013-02-27 00:26:00,53.2,44.4,29.88,SSW,210,0.0,5.0,72,0.00,,,0.00,Wunderground v.1.15,2013-02-27 06:26:00,
2013-02-27 00:34:00,53.1,44.3,29.88,NW,323,0.0,5.0,72,0.00,,,0.00,Wunderground v.1.15,2013-02-27 06:34:00,
2013-02-27 00:40:00,52.9,44.1,29.89,SSE,158,0.0,5.0,72,0.00,,,0.00,Wunderground v.1.15,2013-02-27 06:40:00,
2013-02-27 00:46:00,52.9,44.1,29.89,East,82,0.0,5.0,72,0.00,,,0.00,Wunderground v.1.15,2013-02-27 06:46:00,
2013-02-27 00:52:00,52.6,44.2,29.89,NNW,345,1.0,5.0,73,0.00,,,0.00,Wunderground v.1.15,2013-02-27 06:52:00,
2013-02-27 00:58:00,52.6,44.2,29.89,NNE,12,1.0,5.0,73,0.00,,,0.00,Wunderground v.1.15,2013-02-27 06:58:00,
2013-02-27 01:04:00,52.5,44.1,29.89,North,8,1.0,5.0,73,0.00,,,0.00,Wunderground v.1.15,2013-02-27 07:04:00,
2013-02-27 01:10:00,52.3,44.6,29.90,NNE,32,0.0,4.0,75,0.00,,,0.00,Wunderground v.1.15,2013-02-27 07:10:00,
2013-02-27 01:16:00,52.2,44.5,29.90,North,350,0.0,4.0,75,0.00,,,0.00,Wunderground v.1.15,2013-02-27 07:16:00,
2013-02-27 01:22:00,51.9,44.6,29.89,NNE,24,0.0,4.0,76,0.00,,,0.00,Wunderground v.1.15,2013-02-27 07:22:00,
2013-02-27 01:28:00,51.7,44.4,29.89,NNW,340,0.0,4.0,76,0.00,,,0.00,Wunderground v.1.15,2013-02-27 07:28:00,
2013-02-27 01:34:00,51.4,44.4,29.89,South,173,0.0,4.0,77,0.00,,,0.00,Wunderground v.1.15,2013-02-27 07:34:00,
2013-02-27 01:40:00,51.3,44.3,29.88,SSE,162,0.0,4.0,77,0.00,,,0.00,Wunderground v.1.15,2013-02-27 07:40:00,
2013-02-27 01:46:00,51.0,44.4,29.88,SSE,162,0.0,4.0,78,0.00,,,0.00,Wunderground v.1.15,2013-02-27 07:46:00,
2013-02-27 01:52:00,50.8,44.2,29.90,NNW,342,0.0,4.0,78,0.00,,,0.00,Wunderground v.1.15,2013-02-27 07:52:00,
2013-02-27 01:58:00,50.5,44.2,29.90,NNW,342,0.0,4.0,79,0.00,,,0.00,Wunderground v.1.15,2013-02-27 07:58:00,
2013-02-27 02:04:00,50.4,44.5,29.90,NNW,342,0.0,4.0,80,0.00,,,0.00,Wunderground v.1.15,2013-02-27 08:04:00,
2013-02-27 02:10:00,50.1,44.2,29.90,NNW,342,0.0,0.0,80,0.00,,,0.00,Wunderground v.1.15,2013-02-27 08:10:00,
2013-02-27 02:16:00,49.9,44.3,29.90,NNW,342,0.0,0.0,81,0.00,,,0.00,Wunderground v.1.15,2013-02-27 08:16:00,
2013-02-27 02:22:00,49.6,44.0,29.89,NNW,342,0.0,0.0,81,0.00,,,0.00,Wunderground v.1.15,2013-02-27 08:22:00,
2013-02-27 02:28:00,49.4,44.1,29.89,NNW,342,0.0,0.0,82,0.00,,,0.00,Wunderground v.1.15,2013-02-27 08:28:00,
2013-02-27 02:34:00,49.1,44.2,29.89,NNW,342,0.0,0.0,83,0.00,,,0.00,Wunderground v.1.15,2013-02-27 08:34:00,
2013-02-27 02:40:00,48.8,43.9,29.90,NNW,342,0.0,0.0,83,0.00,,,0.00,Wunderground v.1.15,2013-02-27 08:40:00,
2013-02-27 02:46:00,48.5,43.9,29.90,NNW,342,0.0,0.0,84,0.00,,,0.00,Wunderground v.1.15,2013-02-27 08:46:00,
2013-02-27 02:52:00,48.2,43.9,29.90,NNW,342,0.0,0.0,85,0.00,,,0.00,Wunderground v.1.15,2013-02-27 08:52:00,
2013-02-27 02:58:00,47.9,43.6,29.90,NNW,342,0.0,0.0,85,0.00,,,0.00,Wunderground v.1.15,2013-02-27 08:58:00,
2013-02-27 03:04:00,47.6,43.3,29.90,NNW,342,0.0,0.0,85,0.00,,,0.00,Wunderground v.1.15,2013-02-27 09:04:00,
2013-02-27 03:12:00,47.1,43.4,29.90,NNW,342,0.0,0.0,87,0.00,,,0.00,Wunderground v.1.15,2013-02-27 09:12:00,
2013-02-27 03:20:00,47.0,43.6,29.90,NNW,342,0.0,0.0,88,0.00,,,0.00,Wunderground v.1.15,2013-02-27 09:20:00,
2013-02-27 03:26:00,46.8,43.4,29.90,NNW,342,0.0,0.0,88,0.00,,,0.00,Wunderground v.1.15,2013-02-27 09:26:00,
2013-02-27 03:34:00,46.5,43.4,29.90,NNW,342,0.0,0.0,89,0.00,,,0.00,Wunderground v.1.15,2013-02-27 09:34:00,
2013-02-27 03:40:00,46.4,43.3,29.90,NNW,342,0.0,0.0,89,0.00,,,0.00,Wunderground v.1.15,2013-02-27 09:40:00,
2013-02-27 03:46:00,46.4,43.6,29.90,NNW,342,0.0,0.0,90,0.00,,,0.00,Wunderground v.1.15,2013-02-27 09:46:00,
2013-02-27 03:52:00,46.2,43.7,29.91,NNW,342,0.0,0.0,91,0.00,,,0.00,Wunderground v.1.15,2013-02-27 09:52:00,
2013-02-27 03:58:00,46.2,44.0,29.91,NNW,342,0.0,0.0,92,0.00,,,0.00,Wunderground v.1.15,2013-02-27 09:58:00,
2013-02-27 04:04:00,46.2,44.0,29.91,NNW,342,0.0,0.0,92,0.00,,,0.00,Wunderground v.1.15,2013-02-27 10:04:00,
2013-02-27 04:10:00,46.2,44.0,29.91,NNW,342,0.0,0.0,92,0.00,,,0.00,Wunderground v.1.15,2013-02-27 10:10:00,
2013-02-27 04:16:00,46.2,44.3,29.91,NNW,342,0.0,0.0,93,0.00,,,0.00,Wunderground v.1.15,2013-02-27 10:16:00,
2013-02-27 04:22:00,46.2,44.3,29.92,NNW,342,0.0,0.0,93,0.00,,,0.00,Wunderground v.1.15,2013-02-27 10:22:00,
2013-02-27 04:28:00,46.2,44.3,29.92,NNW,342,0.0,0.0,93,0.00,,,0.00,Wunderground v.1.15,2013-02-27 10:28:00,
2013-02-27 04:34:00,46.1,44.2,29.92,NNW,342,0.0,0.0,93,0.00,,,0.00,Wunderground v.1.15,2013-02-27 10:34:00,
2013-02-27 04:40:00,46.1,44.2,29.92,NNW,342,0.0,0.0,93,0.00,,,0.00,Wunderground v.1.15,2013-02-27 10:40:00,
2013-02-27 04:46:00,46.1,44.5,29.92,NNW,342,0.0,0.0,94,0.00,,,0.00,Wunderground v.1.15,2013-02-27 10:46:00,
2013-02-27 04:52:00,46.0,44.4,29.93,NNW,342,0.0,0.0,94,0.00,,,0.00,Wunderground v.1.15,2013-02-27 10:52:00,
2013-02-27 04:58:00,45.8,44.2,29.93,NNW,342,0.0,0.0,94,0.00,,,0.00,Wunderground v.1.15,2013-02-27 10:58:00,
2013-02-27 05:04:00,45.7,44.1,29.93,NNW,342,0.0,0.0,94,0.00,,,0.00,Wunderground v.1.15,2013-02-27 11:04:00,
2013-02-27 05:10:00,45.7,44.1,29.93,NNW,342,0.0,0.0,94,0.00,,,0.00,Wunderground v.1.15,2013-02-27 11:10:00,
2013-02-27 05:16:00,45.5,43.9,29.93,NNW,342,0.0,0.0,94,0.00,,,0.00,Wunderground v.1.15,2013-02-27 11:16:00,
2013-02-27 05:22:00,45.4,43.8,29.93,NNW,342,0.0,0.0,94,0.00,,,0.00,Wunderground v.1.15,2013-02-27 11:22:00,
2013-02-27 05:28:00,45.2,43.6,29.93,NNW,342,0.0,0.0,94,0.00,,,0.00,Wunderground v.1.15,2013-02-27 11:28:00,
2013-02-27 05:34:00,45.1,43.5,29.93,NNW,342,0.0,0.0,94,0.00,,,0.00,Wunderground v.1.15,2013-02-27 11:34:00,
2013-02-27 05:40:00,44.8,43.2,29.92,NNW,342,0.0,0.0,94,0.00,,,0.00,Wunderground v.1.15,2013-02-27 11:40:00,
2013-02-27 05:46:00,44.6,43.0,29.92,NNW,342,0.0,0.0,94,0.00,,,0.00,Wunderground v.1.15,2013-02-27 11:46:00,
2013-02-27 05:52:00,44.5,42.9,29.92,NNW,342,0.0,0.0,94,0.00,,,0.00,Wunderground v.1.15,2013-02-27 11:52:00,
2013-02-27 05:58:00,44.3,43.0,29.92,NNW,342,0.0,0.0,95,0.00,,,0.00,Wunderground v.1.15,2013-02-27 11:58:00,
2013-02-27 06:04:00,44.2,42.9,29.92,NNW,342,0.0,0.0,95,0.00,,,0.00,Wunderground v.1.15,2013-02-27 12:04:00,
2013-02-27 06:12:00,44.2,42.9,29.93,NNW,342,0.0,0.0,95,0.00,,,0.00,Wunderground v.1.15,2013-02-27 12:12:00,
2013-02-27 06:20:00,-999.9,-99.9,29.93,North,32767,-999.0,0.0,255,-99.99,,,0.00,Wunderground v.1.15,2013-02-27 12:20:00,
2013-02-27 06:26:00,-999.9,-99.9,29.93,North,32767,-999.0,0.0,255,-99.99,,,0.00,Wunderground v.1.15,2013-02-27 12:26:00,
2013-02-27 06:34:00,-999.9,-99.9,29.93,North,32767,-999.0,0.0,255,-99.99,,,0.00,Wunderground v.1.15,2013-02-27 12:34:00,
2013-02-27 06:40:00,-999.9,-99.9,29.93,North,32767,-999.0,0.0,255,-99.99,,,0.00,Wunderground v.1.15,2013-02-27 12:40:00,
2013-02-27 06:46:00,-999.9,-99.9,29.93,North,32767,-999.0,0.0,255,-99.99,,,0.00,Wunderground v.1.15,2013-02-27 12:46:00,
2013-02-27 06:52:00,-999.9,-99.9,29.94,North,32767,-999.0,0.0,255,-99.99,,,0.00,Wunderground v.1.15,2013-02-27 12:52:00,
2013-02-27 06:58:00,-999.9,-99.9,29.94,North,32767,-999.0,0.0,255,-99.99,,,0.00,Wunderground v.1.15,2013-02-27 12:58:00,
2013-02-27 07:04:00,-999.9,-99.9,29.94,North,32767,-999.0,0.0,255,-99.99,,,0.00,Wunderground v.1.15,2013-02-27 13:04:00,
2013-02-27 07:10:00,45.7,44.9,29.95,NNW,342,0.0,0.0,97,0.00,,,0.00,Wunderground v.1.15,2013-02-27 13:10:00,
2013-02-27 07:16:00,45.8,45.0,29.95,NNW,342,0.0,0.0,97,0.00,,,0.00,Wunderground v.1.15,2013-02-27 13:16:00,
2013-02-27 07:22:00,46.1,45.3,29.96,NNW,342,0.0,0.0,97,0.00,,,0.00,Wunderground v.1.15,2013-02-27 13:22:00,
2013-02-27 07:28:00,46.2,45.4,29.96,NNW,342,0.0,0.0,97,0.00,,,0.00,Wunderground v.1.15,2013-02-27 13:28:00,
2013-02-27 07:34:00,46.4,45.6,29.96,NNW,342,0.0,0.0,97,0.00,,,0.00,Wunderground v.1.15,2013-02-27 13:34:00,
2013-02-27 07:40:00,46.8,46.0,29.96,NNW,342,0.0,0.0,97,0.00,,,0.00,Wunderground v.1.15,2013-02-27 13:40:00,
2013-02-27 07:46:00,47.1,46.3,29.96,NNW,342,0.0,0.0,97,0.00,,,0.00,Wunderground v.1.15,2013-02-27 13:46:00,
2013-02-27 07:52:00,47.7,46.9,29.96,NNW,342,0.0,0.0,97,0.00,,,0.00,Wunderground v.1.15,2013-02-27 13:52:00,
2013-02-27 07:58:00,48.2,47.4,29.96,NNW,342,0.0,0.0,97,0.00,,,0.00,Wunderground v.1.15,2013-02-27 13:58:00,
2013-02-27 08:04:00,48.6,47.5,29.96,NNW,342,0.0,0.0,96,0.00,,,0.00,Wunderground v.1.15,2013-02-27 14:04:00,
2013-02-27 08:10:00,48.9,47.5,29.96,NNW,342,0.0,0.0,95,0.00,,,0.00,Wunderground v.1.15,2013-02-27 14:10:00,
2013-02-27 08:16:00,49.4,47.2,29.96,NNW,342,0.0,0.0,92,0.00,,,0.00,Wunderground v.1.15,2013-02-27 14:16:00,
2013-02-27 08:22:00,49.6,46.8,29.97,NNW,342,0.0,0.0,90,0.00,,,0.00,Wunderground v.1.15,2013-02-27 14:22:00,
2013-02-27 08:28:00,50.1,45.8,29.97,NNW,342,0.0,0.0,85,0.00,,,0.00,Wunderground v.1.15,2013-02-27 14:28:00,
2013-02-27 08:34:00,51.0,46.0,29.97,NNW,342,0.0,0.0,83,0.00,,,0.00,Wunderground v.1.15,2013-02-27 14:34:00,
2013-02-27 08:40:00,51.7,45.7,29.97,NNW,342,0.0,0.0,80,0.00,,,0.00,Wunderground v.1.15,2013-02-27 14:40:00,
2013-02-27 08:46:00,52.2,44.9,29.97,NNW,342,0.0,0.0,76,0.00,,,0.00,Wunderground v.1.15,2013-02-27 14:46:00,
2013-02-27 08:52:00,52.3,43.2,29.98,NNW,342,0.0,0.0,71,0.00,,,0.00,Wunderground v.1.15,2013-02-27 14:52:00,
2013-02-27 08:58:00,52.8,42.9,29.98,East,95,0.0,0.0,69,0.00,,,0.00,Wunderground v.1.15,2013-02-27 14:58:00,
2013-02-27 09:04:00,53.3,43.4,29.98,East,97,0.0,0.0,69,0.00,,,0.00,Wunderground v.1.15,2013-02-27 15:04:00,
2013-02-27 09:10:00,54.1,43.8,29.99,East,96,0.0,1.0,68,0.00,,,0.00,Wunderground v.1.15,2013-02-27 15:10:00,
2013-02-27 09:16:00,54.7,41.9,29.99,East,96,0.0,1.0,62,0.00,,,0.00,Wunderground v.1.15,2013-02-27 15:16:00,